Location: Norderney
(53.7000°N, 7.1500°E)
Time: 09:28:06
(UTC+02:00)

X-37B - Pass Details

Date: 27 June 2021
Orbit: 383 x 392 km, 45.0° (Epoch: 01 July)

Event Time Altitude Azimuth Distance (km) Brightness Sun altitude
Rises 23:25:51 0° 246° (WSW) 2,256 4.5 -8.1°
Reaches altitude 10° 23:28:21 10° 226° (SW) 1,402 3.3 -8.3°
Maximum altitude 23:30:31 17° 182° (S) 1,049 2.3 -8.5°
Enters shadow 23:32:10 13° 146° (SE) 1,263 2.5 -8.6°
